TimeEDT,TemperatureF,Dew PointF,Humidity,Sea Level PressureIn,VisibilityMPH,Wind Direction,Wind SpeedMPH,Gust SpeedMPH,PrecipitationIn,Events,Conditions,WindDirDegrees,DateUTC
12:14 AM,55.9,40.1,55,29.83,10.0,WSW,9.2,-,N/A,,Overcast,250,2012-10-10 04:14:00
12:33 AM,51.3,45.0,79,29.85,10.0,WNW,16.1,23.0,N/A,,Overcast,300,2012-10-10 04:33:00
12:54 AM,48.7,45.0,87,29.85,7.0,WNW,16.1,21.9,N/A,Rain,Rain,300,2012-10-10 04:54:00
1:13 AM,46.8,43.3,88,29.87,7.0,WNW,15.0,23.0,N/A,Rain,Rain,300,2012-10-10 05:13:00
1:34 AM,46.4,43.5,90,29.88,7.0,NW,12.7,16.1,N/A,Rain,Rain,310,2012-10-10 05:34:00
1:54 AM,45.3,42.1,88,29.87,7.0,NW,6.9,-,N/A,Rain,Light Rain,320,2012-10-10 05:54:00
2:13 AM,45.1,42.3,90,29.88,7.0,NW,5.8,-,N/A,Rain,Rain,310,2012-10-10 06:13:00
2:34 AM,45.1,42.4,90,29.88,7.0,NW,5.8,-,N/A,Rain,Rain,310,2012-10-10 06:34:00
2:54 AM,45.1,42.8,91,29.88,7.0,WNW,6.9,-,N/A,Rain,Rain,300,2012-10-10 06:54:00
3:13 AM,45.0,42.4,91,29.87,7.0,WNW,5.8,-,N/A,Rain,Light Rain,300,2012-10-10 07:13:00
3:34 AM,44.6,42.1,91,29.87,7.0,WNW,5.8,-,N/A,Rain,Light Rain,300,2012-10-10 07:34:00
3:54 AM,44.2,41.7,91,29.88,7.0,WNW,10.4,-,N/A,Rain,Light Rain,300,2012-10-10 07:54:00
4:14 AM,43.3,40.5,90,29.88,7.0,WNW,9.2,-,N/A,Rain,Light Rain,300,2012-10-10 08:14:00
4:34 AM,42.4,39.6,90,29.88,10.0,West,6.9,-,N/A,Rain,Light Rain,280,2012-10-10 08:34:00
4:53 AM,41.9,39.2,90,29.88,10.0,Calm,Calm,-,N/A,,Overcast,0,2012-10-10 08:53:00
5:14 AM,41.9,39.4,91,29.88,10.0,Calm,Calm,-,N/A,,Overcast,0,2012-10-10 09:14:00
5:34 AM,42.1,39.7,91,29.88,10.0,Calm,Calm,-,N/A,,Overcast,0,2012-10-10 09:34:00
5:53 AM,42.3,40.1,92,29.89,10.0,SW,4.6,-,N/A,,Overcast,220,2012-10-10 09:53:00
6:14 AM,42.1,39.7,91,29.89,10.0,SW,4.6,-,N/A,,Overcast,230,2012-10-10 10:14:00
6:34 AM,41.9,39.6,91,29.90,10.0,SW,5.8,-,N/A,,Overcast,220,2012-10-10 10:34:00
6:53 AM,41.9,39.6,91,29.90,10.0,SW,4.6,-,N/A,,Overcast,230,2012-10-10 10:53:00
7:14 AM,40.8,38.5,91,29.91,10.0,SW,4.6,-,N/A,,Scattered Clouds,220,2012-10-10 11:14:00
7:33 AM,40.6,38.7,93,29.91,7.0,SW,4.6,-,N/A,,Scattered Clouds,230,2012-10-10 11:33:00
7:54 AM,40.5,38.5,93,29.92,5.0,SW,5.8,-,N/A,,Scattered Clouds,220,2012-10-10 11:54:00
8:14 AM,40.5,38.7,93,29.92,5.0,SW,5.8,-,N/A,,Clear,220,2012-10-10 12:14:00
8:54 AM,43.0,41.0,93,29.94,10.0,WSW,6.9,-,N/A,,Scattered Clouds,250,2012-10-10 12:54:00
9:34 AM,44.2,40.8,88,29.96,10.0,WSW,5.8,-,N/A,,Overcast,250,2012-10-10 13:34:00
9:54 AM,44.6,40.3,85,29.97,10.0,WSW,6.9,-,N/A,,Overcast,250,2012-10-10 13:54:00
10:14 AM,47.5,41.4,79,29.97,10.0,West,8.1,-,N/A,,Overcast,260,2012-10-10 14:14:00
10:34 AM,46.9,39.9,77,29.98,10.0,West,11.5,19.6,N/A,,Overcast,270,2012-10-10 14:34:00
10:54 AM,46.4,39.6,77,29.98,10.0,West,10.4,-,N/A,,Overcast,260,2012-10-10 14:54:00
11:13 AM,46.0,38.7,75,29.99,10.0,West,15.0,21.9,N/A,,Overcast,280,2012-10-10 15:13:00
11:34 AM,46.0,37.4,72,30.00,10.0,West,15.0,21.9,N/A,,Overcast,280,2012-10-10 15:34:00
11:54 AM,45.9,38.5,75,30.01,10.0,West,16.1,20.7,N/A,,Overcast,280,2012-10-10 15:54:00
12:13 PM,45.3,36.9,72,30.02,10.0,WNW,12.7,24.2,N/A,,Overcast,290,2012-10-10 16:13:00
12:54 PM,45.9,34.9,66,30.04,10.0,West,17.3,23.0,N/A,,Overcast,280,2012-10-10 16:54:00
1:13 PM,45.9,33.3,61,30.04,10.0,West,19.6,-,N/A,,Overcast,270,2012-10-10 17:13:00
1:34 PM,45.3,32.2,60,30.04,10.0,West,19.6,27.6,N/A,,Overcast,280,2012-10-10 17:34:00
1:54 PM,44.8,31.6,60,30.04,10.0,WNW,11.5,23.0,N/A,,Overcast,290,2012-10-10 17:54:00
2:14 PM,45.7,32.0,59,30.05,10.0,WNW,10.4,20.7,N/A,,Overcast,290,2012-10-10 18:14:00
2:34 PM,46.4,31.8,57,30.04,10.0,WNW,15.0,21.9,N/A,,Overcast,290,2012-10-10 18:34:00
2:54 PM,46.6,30.2,53,30.04,10.0,WNW,20.7,28.8,N/A,,Overcast,290,2012-10-10 18:54:00
3:14 PM,46.8,29.7,51,30.05,10.0,West,16.1,26.5,N/A,,Mostly Cloudy,280,2012-10-10 19:14:00
3:34 PM,46.6,29.7,52,30.07,10.0,WNW,13.8,21.9,N/A,,Mostly Cloudy,290,2012-10-10 19:34:00
3:53 PM,45.9,29.3,52,30.07,10.0,WNW,16.1,21.9,N/A,,Overcast,290,2012-10-10 19:53:00
4:14 PM,46.6,30.7,54,30.08,10.0,West,13.8,23.0,N/A,,Overcast,280,2012-10-10 20:14:00
4:34 PM,45.5,30.7,56,30.08,10.0,WNW,12.7,23.0,N/A,,Overcast,290,2012-10-10 20:34:00
4:53 PM,47.1,29.3,50,30.08,10.0,WNW,16.1,27.6,N/A,,Mostly Cloudy,300,2012-10-10 20:53:00
5:14 PM,46.0,28.2,50,30.09,10.0,WNW,16.1,24.2,N/A,,Overcast,290,2012-10-10 21:14:00
5:34 PM,46.0,28.0,50,30.09,10.0,West,17.3,20.7,N/A,,Overcast,280,2012-10-10 21:34:00
5:53 PM,45.5,27.5,49,30.10,10.0,WNW,13.8,23.0,N/A,,Overcast,290,2012-10-10 21:53:00
6:14 PM,45.5,28.4,51,30.10,10.0,WNW,10.4,17.3,N/A,,Overcast,300,2012-10-10 22:14:00
6:34 PM,45.0,29.1,54,30.11,10.0,West,8.1,-,N/A,,Overcast,280,2012-10-10 22:34:00
6:54 PM,44.6,29.7,56,30.12,10.0,West,8.1,-,N/A,,Overcast,270,2012-10-10 22:54:00
7:14 PM,44.6,29.8,56,30.12,10.0,West,3.5,-,N/A,,Overcast,260,2012-10-10 23:14:00
7:34 PM,44.6,29.7,56,30.12,10.0,West,6.9,-,N/A,,Overcast,260,2012-10-10 23:34:00
8:14 PM,44.4,29.7,56,30.14,10.0,WSW,3.5,-,N/A,,Overcast,250,2012-10-11 00:14:00
8:33 PM,44.1,29.8,57,30.14,10.0,WSW,3.5,-,N/A,,Overcast,250,2012-10-11 00:33:00
8:54 PM,43.5,31.5,63,30.15,10.0,Calm,Calm,-,N/A,,Overcast,0,2012-10-11 00:54:00
9:14 PM,43.0,30.7,62,30.15,10.0,Calm,Calm,-,N/A,,Overcast,0,2012-10-11 01:14:00
9:33 PM,40.8,30.7,67,30.16,10.0,SW,3.5,-,N/A,,Scattered Clouds,230,2012-10-11 01:33:00
9:54 PM,39.4,32.0,75,30.16,10.0,SSW,4.6,-,N/A,,Mostly Cloudy,210,2012-10-11 01:54:00
10:14 PM,38.5,32.2,78,30.16,10.0,SSW,4.6,-,N/A,,Mostly Cloudy,200,2012-10-11 02:14:00
10:33 PM,38.3,32.0,78,30.16,10.0,SSW,3.5,-,N/A,,Scattered Clouds,210,2012-10-11 02:33:00
10:54 PM,38.1,31.8,78,30.16,10.0,SW,3.5,-,N/A,,Scattered Clouds,220,2012-10-11 02:54:00
11:14 PM,36.5,31.5,82,30.17,10.0,SSW,5.8,-,N/A,,Scattered Clouds,210,2012-10-11 03:14:00
11:34 PM,36.3,31.3,82,30.17,10.0,SSW,4.6,-,N/A,,Clear,210,2012-10-11 03:34:00
11:54 PM,36.3,30.9,81,30.18,10.0,SSW,3.5,-,N/A,,Clear,200,2012-10-11 03:54:00